1531245600.57,36656,19.06,74066.8,4.73,-0.07,0.33,0,*67
1531245601.75,36657,19.06,74064.8,4.73,-0.07,0.33,0,*66
1531245602.94,36658,19.06,74066.3,4.73,-0.07,0.33,0,*69
1531245604.14,36659,19.06,74066.3,4.73,-0.03,0.37,0,*68
1531245605.32,36660,19.06,74066.8,4.73,-0.07,0.33,0,*62
1531245606.51,36661,19.06,74062.5,4.73,-0.07,0.33,0,*63
1531245607.7,36662,19.06,74068.0,4.73,-0.15,0.33,0,*53
1531245608.9,36663,19.06,74064.5,4.73,-0.07,0.37,0,*65
1531245610.08,36664,19.06,74064.5,4.73,-0.07,0.33,0,*66
1531245611.27,36665,19.06,74064.8,4.73,-0.07,0.37,0,*63
1531245612.44,36666,19.06,74066.8,4.73,-0.07,0.43,0,*63
1531245613.61,36667,19.06,74064.8,4.73,-0.07,0.43,0,*62
1531245614.78,36668,19.06,74062.3,4.73,-0.07,0.43,0,*6D
1531245615.94,36669,19.06,74064.0,4.73,-0.07,0.43,0,*6C
1531245617.11,36670,19.06,74066.3,4.73,-0.03,0.43,0,*60
1531245618.28,36671,19.06,74064.0,4.73,-0.07,0.43,0,*65
1531245619.45,36672,19.06,74064.8,4.73,-0.07,0.43,0,*66
1531245620.64,36673,19.06,74068.0,4.73,-0.07,0.37,0,*64
1531245621.83,36674,19.06,74066.3,4.73,-0.07,0.37,0,*63
1531245623.02,36675,19.06,74064.5,4.73,-0.07,0.37,0,*62
1531245624.22,36676,19.06,74064.0,4.73,-0.07,0.37,0,*61
1531245625.41,36677,19.06,74066.3,4.73,-0.07,0.37,0,*60
1531245626.58,36678,19.06,74062.0,4.73,-0.15,0.43,0,*5F
1531245627.77,36679,19.06,74064.0,4.73,-0.07,0.37,0,*6E
1531245628.94,36680,19.06,74066.5,4.73,-0.07,0.43,0,*6B
1531245630.11,36681,19.06,74064.0,4.73,-0.07,0.43,0,*6A
1531245631.27,36682,19.06,74060.8,4.73,-0.07,0.43,0,*69
1531245632.45,36683,19.06,74062.8,4.73,-0.15,0.43,0,*5B
1531245633.61,36684,19.06,74064.5,4.73,-0.07,0.43,0,*6F
1531245634.81,36685,19.06,74066.3,4.73,-0.15,0.47,0,*59
1531245635.98,36686,19.06,74066.8,4.73,-0.07,0.43,0,*6D
1531245637.18,36687,19.06,74064.5,4.73,-0.15,0.47,0,*5B
1531245638.35,36688,19.06,74066.3,4.73,-0.07,0.43,0,*63
1531245639.52,36689,19.06,74066.8,4.73,-0.19,0.43,0,*5D
1531245640.7,36690,19.06,74064.0,4.73,-0.19,0.43,0,*55
1531245641.88,36691,19.06,74064.8,4.73,-0.19,0.43,0,*54
1531245643.05,36692,19.06,74066.3,4.73,-0.15,0.43,0,*5B
1531245644.25,36693,19.06,74064.3,4.73,-0.15,0.47,0,*5E
1531245645.45,36694,19.06,74066.3,4.75,-0.15,0.43,0,*5B
1531245646.65,36695,19.06,74062.8,4.73,-0.19,0.47,0,*54
1531245647.83,36696,19.06,74070.5,4.73,-0.19,0.43,0,*53
1531245649.03,36697,19.06,74064.8,4.73,-0.19,0.47,0,*56
1531245650.23,36698,19.06,74064.8,4.73,-0.15,0.47,0,*55
1531245651.42,36699,19.06,74068.3,4.73,-0.07,0.47,0,*67
1531245652.61,36700,19.06,74066.3,4.73,-0.07,0.59,0,*69
1531245653.81,36701,19.06,74066.3,4.73,-0.07,0.55,0,*64
1531245655.01,36702,19.06,74068.0,4.73,-0.15,0.47,0,*57
1531245656.2,36703,19.06,74066.0,4.73,-0.07,0.47,0,*65
1531245657.4,36704,19.06,74066.0,4.73,-0.15,0.55,0,*52
1531245658.6,36705,19.06,74066.8,4.73,-0.19,0.55,0,*5F
1531245659.8,36706,19.06,74066.8,4.73,-0.15,0.55,0,*50
1531245661.01,36707,19.06,74066.3,4.73,-0.19,0.47,0,*5E
1531245662.23,36708,19.06,74066.0,4.75,-0.15,0.47,0,*5B
1531245663.43,36709,19.06,74066.3,4.73,-0.19,0.47,0,*50
1531245664.64,36710,19.06,74062.3,4.73,-0.19,0.47,0,*58
1531245665.84,36711,19.06,74064.0,4.73,-0.19,0.47,0,*59
1531245667.07,36712,19.06,74066.3,4.75,-0.19,0.55,0,*5F
1531245668.27,36713,19.06,74064.8,4.73,-0.19,0.55,0,*58
1531245669.47,36714,19.06,74066.0,4.73,-0.19,0.55,0,*5F
1531245670.67,36715,19.06,74064.3,4.73,-0.19,0.47,0,*5D
1531245671.88,36716,19.06,74064.0,4.73,-0.19,0.47,0,*5E
1531245673.08,36717,19.06,74064.0,4.73,-0.19,0.55,0,*5C
1531245674.28,36718,19.06,74066.0,4.73,-0.19,0.55,0,*53
1531245675.48,36719,19.06,74064.0,4.73,-0.19,0.55,0,*52
1531245676.69,36720,19.06,74062.3,4.73,-0.19,0.55,0,*58
1531245677.89,36721,19.06,74066.5,4.73,-0.19,0.47,0,*5A
1531245679.09,36722,19.06,74064.0,4.73,-0.19,0.55,0,*5A
1531245680.3,36723,19.06,74068.8,4.73,-0.19,0.55,0,*5B
1531245681.5,36724,19.06,74066.0,4.73,-0.19,0.55,0,*5C
1531245682.7,36725,19.06,74066.0,4.73,-0.19,0.59,0,*51
1531245683.9,36726,19.06,74064.0,4.73,-0.19,0.55,0,*5E
1531245685.11,36727,19.06,74066.5,4.73,-0.19,0.55,0,*5F
1531245686.31,36728,19.06,74066.5,4.73,-0.19,0.55,0,*50
1531245687.51,36729,19.06,74066.5,4.73,-0.19,0.59,0,*5D
1531245688.71,36730,19.06,74066.3,4.73,-0.19,0.55,0,*59
1531245689.91,36731,19.06,74064.5,4.73,-0.19,0.59,0,*54
1531245691.12,36732,19.06,74066.5,4.73,-0.19,0.59,0,*57
1531245692.32,36733,19.06,74064.8,4.73,-0.19,0.59,0,*56
1531245693.52,36734,19.06,74064.0,4.73,-0.19,0.59,0,*51
1531245694.72,36735,19.06,74064.3,4.73,-0.19,0.55,0,*5C
1531245695.92,36736,19.13,74068.8,4.73,-0.19,0.59,0,*53
1531245697.13,36737,19.06,74066.0,4.73,-0.19,0.59,0,*52
1531245698.33,36738,19.06,74064.3,4.73,-0.19,0.55,0,*51
1531245699.53,36739,19.06,74068.8,4.73,-0.19,0.55,0,*50
1531245700.76,36740,19.06,74066.3,4.73,-0.27,0.55,0,*53
1531245701.98,36741,19.06,74066.3,4.73,-0.27,0.59,0,*5E
1531245703.2,36742,19.06,74068.8,4.73,-0.27,0.55,0,*51
1531245704.43,36743,19.06,74068.3,4.73,-0.27,0.59,0,*5C
1531245705.65,36744,19.06,74066.8,4.73,-0.27,0.59,0,*5B
1531245706.88,36745,19.06,74064.8,4.73,-0.27,0.55,0,*56
1531245708.1,36746,19.06,74064.8,4.73,-0.27,0.55,0,*55
1531245709.3,36747,19.06,74064.8,4.73,-0.29,0.55,0,*5A
1531245710.49,36748,19.06,74066.5,4.73,-0.29,0.55,0,*55
1531245711.72,36749,19.06,74066.5,4.73,-0.27,0.55,0,*5A
1531245712.94,36750,19.06,74066.3,4.73,-0.27,0.55,0,*52
1531245714.17,36751,19.06,74066.5,4.73,-0.27,0.55,0,*53
1531245715.39,36752,19.06,74066.0,4.73,-0.27,0.55,0,*50
1531245716.61,36753,19.06,74062.5,4.73,-0.27,0.59,0,*5D
1531245717.84,36754,19.06,74062.8,4.73,-0.27,0.55,0,*56
1531245719.06,36755,19.06,74064.3,4.73,-0.27,0.67,0,*56
1531245720.27,36756,19.06,74066.0,4.73,-0.27,0.67,0,*55
1531245721.5,36757,19.06,74064.0,4.73,-0.27,0.59,0,*59
1531245722.72,36758,19.06,74068.8,4.73,-0.27,0.59,0,*56
1531245723.92,36759,19.06,74070.8,4.73,-0.29,0.59,0,*59
1531245725.13,36760,19.06,74064.8,4.73,-0.27,0.67,0,*50
1531245726.35,36761,19.06,74066.5,4.73,-0.27,0.67,0,*51
1531245727.57,36762,19.06,74066.0,4.73,-0.27,0.71,0,*55
1531245728.79,36763,19.06,74066.0,4.73,-0.27,0.67,0,*53
1531245730.01,36764,19.06,74064.5,4.73,-0.27,0.59,0,*59
1531245731.23,36765,19.06,74070.3,4.73,-0.27,0.59,0,*58
1531245732.46,36766,19.06,74066.5,4.73,-0.27,0.55,0,*57
1531245733.65,36767,19.06,74066.0,4.73,-0.29,0.59,0,*54
1531245734.87,36768,19.06,74064.3,4.73,-0.27,0.67,0,*58
1531245736.09,36769,19.06,74068.0,4.73,-0.27,0.67,0,*59
1531245737.28,36770,19.06,74064.3,4.73,-0.19,0.67,0,*5C
1531245738.48,36771,19.06,74066.8,4.73,-0.19,0.71,0,*5A
1531245739.69,36772,19.06,74066.3,4.73,-0.19,0.59,0,*53
1531245740.89,36773,19.06,74070.5,4.73,-0.19,0.59,0,*52
1531245742.09,36774,19.06,74068.0,4.73,-0.19,0.71,0,*5F
1531245743.28,36775,19.06,74064.3,4.73,-0.19,0.71,0,*5E
1531245744.48,36776,19.06,74064.3,4.73,-0.15,0.71,0,*51
1531245745.68,36777,19.06,74066.8,4.73,-0.19,0.71,0,*5C
1531245746.88,36778,19.06,74064.0,4.73,-0.19,0.71,0,*53
1531245748.07,36779,19.06,74064.3,4.73,-0.15,0.67,0,*59
1531245749.27,36780,19.06,74070.0,4.73,-0.19,0.71,0,*54
1531245750.49,36781,19.06,74066.0,4.69,-0.23,0.67,0,*50
1531245751.68,36782,19.06,74066.8,4.73,-0.15,0.67,0,*5D
1531245752.9,36783,19.06,74064.8,4.69,-0.23,0.67,0,*52
1531245754.09,36784,19.06,74068.3,4.73,-0.15,0.71,0,*5C
1531245755.29,36785,19.06,74066.3,4.73,-0.15,0.67,0,*5A
1531245756.48,36786,19.06,74066.8,4.73,-0.15,0.79,0,*56
1531245757.68,36787,19.06,74066.0,4.73,-0.15,0.71,0,*5F
1531245758.87,36788,19.06,74066.0,4.73,-0.19,0.79,0,*54
1531245760.07,36789,19.06,74068.5,4.73,-0.19,0.71,0,*5D
1531245761.27,36790,19.06,74066.0,4.73,-0.15,0.79,0,*51
1531245762.46,36791,19.06,74068.3,4.73,-0.15,0.79,0,*50
1531245763.66,36792,19.06,74068.3,4.73,-0.15,0.79,0,*53
1531245764.86,36793,19.06,74070.8,4.73,-0.19,0.71,0,*56
1531245766.05,36794,19.06,74064.3,4.73,-0.19,0.67,0,*56
1531245767.25,36795,19.06,74064.3,4.73,-0.15,0.79,0,*54
1531245768.44,36796,19.06,74066.5,4.73,-0.15,0.71,0,*5F
1531245769.64,36797,19.06,74070.8,4.73,-0.15,0.71,0,*5E
1531245770.83,36798,19.06,74066.8,4.73,-0.15,0.71,0,*51
1531245772.03,36799,19.06,74066.0,4.73,-0.15,0.79,0,*58
1531245773.22,36800,19.06,74064.5,4.73,-0.15,0.79,0,*57
1531245774.42,36801,19.06,74064.3,4.73,-0.15,0.71,0,*5E
1531245775.61,36802,19.06,74066.8,4.73,-0.07,0.71,0,*6E
1531245776.81,36803,19.06,74068.3,4.73,-0.19,0.67,0,*57
1531245778.0,36804,19.06,74064.3,4.73,-0.15,0.71,0,*5B
1531245779.2,36805,19.06,74070.0,4.73,-0.15,0.71,0,*5A
1531245780.39,36806,19.06,74068.3,4.73,-0.07,0.71,0,*6A
1531245781.58,36807,19.06,74064.0,4.73,-0.07,0.79,0,*63
1531245782.77,36808,19.06,74068.5,4.73,-0.07,0.79,0,*6C
1531245783.96,36809,19.06,74066.5,4.73,-0.03,0.79,0,*69
1531245785.15,36810,19.06,74066.5,4.73,-0.07,0.79,0,*65
1531245786.34,36811,19.06,74064.0,4.73,-0.07,0.79,0,*64
1531245787.53,36812,19.06,74068.0,4.73,-0.07,0.79,0,*67
1531245788.72,36813,19.06,74064.0,4.73,-0.03,0.79,0,*62
1531245789.91,36814,19.06,74068.3,4.73,-0.03,0.79,0,*65
1531245791.1,36815,19.06,74066.3,4.73,-0.07,0.79,0,*60
1531245792.29,36816,19.06,74068.8,4.73,-0.03,0.71,0,*6F
1531245793.48,36817,19.06,74068.5,4.73,-0.07,0.71,0,*6A
1531245794.68,36818,19.06,74068.0,4.73,-0.03,0.71,0,*61
1531245795.87,36819,19.06,74066.8,4.73,-0.03,0.71,0,*60
1531245797.06,36820,19.06,74064.5,4.73,-0.07,0.71,0,*6E
1531245798.25,36821,19.06,74068.8,4.73,-0.03,0.79,0,*63
1531245799.44,36822,19.06,74066.8,4.73,-0.07,0.79,0,*64
1531245800.63,36823,19.06,74068.3,4.73,-0.03,0.79,0,*61
1531245801.82,36824,19.06,74070.5,4.73,-0.07,0.79,0,*62
1531245803.01,36825,19.06,74066.5,4.73,-0.03,0.79,0,*67
1531245804.2,36826,19.06,74070.0,4.73,-0.07,0.79,0,*60
1531245805.39,36827,19.06,74070.0,4.73,0.05,0.79,0,*4E
1531245806.58,36828,19.06,74064.3,4.73,-0.07,0.71,0,*66
1531245807.77,36829,19.06,74066.8,4.73,-0.03,0.79,0,*6B
1531245808.97,36830,19.06,74068.0,4.73,-0.03,0.71,0,*6B
1531245810.16,36831,19.06,74070.5,4.73,-0.03,0.67,0,*6D
1531245811.34,36832,19.06,74066.8,4.73,0.05,0.79,0,*4A
1531245812.53,36833,19.06,74068.3,4.73,-0.03,0.79,0,*60
1531245813.72,36834,19.06,74068.0,4.73,0.05,0.79,0,*4C
1531245814.91,36835,19.06,74068.0,4.73,0.09,0.79,0,*41
1531245816.09,36836,19.06,74066.8,4.73,0.05,0.79,0,*4E
1531245817.28,36837,19.06,74066.8,4.73,0.05,0.79,0,*4F
1531245818.46,36838,19.06,74066.8,4.73,0.09,0.79,0,*4C
1531245819.65,36839,19.06,74066.0,4.73,0.05,0.79,0,*41
1531245820.84,36840,19.06,74068.0,4.73,0.09,0.79,0,*43
1531245822.03,36841,19.06,74068.3,4.73,0.09,0.83,0,*47
1531245823.22,36842,19.06,74068.3,4.73,0.09,0.83,0,*44
1531245824.4,36843,19.06,74066.8,4.73,0.09,0.79,0,*40
1531245825.59,36844,19.06,74068.5,4.73,0.09,0.79,0,*47
1531245826.78,36845,19.06,74066.8,4.73,0.09,0.71,0,*4E
1531245827.96,36846,19.06,74070.0,4.73,0.09,0.71,0,*4D
1531245829.15,36847,19.06,74070.0,4.73,0.09,0.83,0,*41
1531245830.34,36848,19.06,74068.3,4.73,0.09,0.79,0,*4B
1531245831.52,36849,19.06,74070.0,4.73,0.09,0.79,0,*4A
1531245832.73,36850,19.06,74068.3,4.73,0.17,0.79,0,*7D
1531245833.92,36851,19.06,74064.8,4.73,0.09,0.83,0,*46
1531245835.11,36852,19.06,74068.5,4.73,0.05,0.67,0,*43
1531245836.29,36853,19.06,74066.3,4.73,0.09,0.71,0,*49
1531245837.47,36854,19.06,74068.5,4.69,0.01,0.63,0,*4E
1531245838.66,36855,19.06,74064.5,4.73,0.09,0.71,0,*4F
1531245839.87,36856,19.06,74068.5,4.73,0.17,0.79,0,*7B
1531245841.08,36857,19.06,74064.3,4.73,0.17,0.71,0,*72
1531245842.27,36858,19.06,74070.3,4.73,0.09,0.71,0,*42
1531245843.48,36859,19.06,74068.8,4.73,0.21,0.79,0,*71
1531245844.69,36860,19.06,74064.5,4.73,0.21,0.83,0,*7E
1531245845.91,36861,19.06,74068.8,4.73,0.21,0.79,0,*7A
1531245847.12,36862,19.06,74066.0,4.73,0.21,0.83,0,*7C
1531245848.34,36863,19.06,74070.5,4.73,0.21,0.83,0,*7D
1531245849.55,36864,19.06,74068.3,4.73,0.25,0.83,0,*7E
1531245850.76,36865,19.06,74068.0,4.73,0.21,0.83,0,*7B
1531245851.98,36866,19.06,74068.5,4.73,0.21,0.79,0,*7D
1531245853.19,36867,19.06,74066.0,4.73,0.17,0.79,0,*79
1531245854.39,36868,19.06,74070.8,4.73,0.17,0.79,0,*76
1531245855.6,36869,19.06,74070.8,4.73,0.17,0.79,0,*77
1531245856.81,36870,19.06,74066.5,4.73,0.21,0.71,0,*72
1531245858.02,36871,19.06,74070.0,4.73,0.17,0.71,0,*76
1531245859.24,36872,19.06,74064.3,4.73,0.21,0.83,0,*7D
1531245860.45,36873,19.06,74064.3,4.73,0.17,0.79,0,*7C
1531245861.66,36874,19.06,74066.5,4.73,0.21,0.79,0,*7E
1531245862.87,36875,19.06,74070.3,4.73,0.17,0.79,0,*7A
1531245864.07,36876,19.06,74070.5,4.73,0.17,0.79,0,*79
1531245865.29,36877,19.06,74070.0,4.73,0.21,0.71,0,*75
1531245866.5,36878,19.06,74068.3,4.73,0.25,0.83,0,*73
1531245867.71,36879,19.06,74068.5,4.73,0.25,0.79,0,*77
1531245868.92,36880,19.06,74066.8,4.73,0.21,0.79,0,*75
1531245870.13,36881,19.06,74070.3,4.73,0.33,0.79,0,*77
1531245871.34,36882,19.06,74066.5,4.73,0.25,0.67,0,*7C
1531245872.55,36883,19.06,74070.8,4.73,0.25,0.71,0,*7A
1531245873.79,36884,19.06,74068.5,4.75,0.25,0.79,0,*73
1531245875.03,36885,19.06,74068.5,4.75,0.33,0.83,0,*70
1531245876.24,36886,19.06,74064.5,4.73,0.33,0.79,0,*70
1531245877.44,36887,19.06,74068.5,4.73,0.33,0.79,0,*71
1531245878.65,36888,19.06,74068.3,4.73,0.33,0.83,0,*7B
1531245879.86,36889,19.06,74066.3,4.73,0.33,0.79,0,*7F
1531245881.07,36890,19.06,74068.8,4.73,0.33,0.83,0,*72
1531245882.28,36891,19.06,74066.5,4.73,0.33,0.79,0,*76
1531245883.49,36892,19.06,74068.5,4.73,0.33,0.83,0,*70
1531245884.7,36893,19.06,74068.3,4.73,0.33,0.79,0,*74
1531245885.91,36894,19.06,74066.3,4.73,0.33,0.83,0,*76
1531245887.12,36895,19.06,74068.0,4.73,0.37,0.79,0,*76
1531245888.33,36896,19.06,74066.5,4.73,0.33,0.79,0,*71
1531245889.54,36897,19.06,74070.0,4.73,0.37,0.83,0,*71
1531245890.75,36898,19.06,74068.3,4.73,0.37,0.79,0,*7B
1531245891.93,36899,19.06,74066.5,4.73,0.43,0.83,0,*7C
1531245893.14,36900,19.06,74070.8,4.73,0.37,0.79,0,*7B
1531245894.35,36901,19.06,74064.8,4.73,0.33,0.79,0,*7E
1531245895.56,36902,19.06,74068.3,4.73,0.25,0.71,0,*72
1531245896.77,36903,19.06,74070.0,4.73,0.33,0.79,0,*7C
1531245897.98,36904,19.06,74068.5,4.73,0.33,0.83,0,*7E
1531245899.19,36905,19.06,74066.0,4.73,0.37,0.79,0,*7E
1531245900.4,36906,19.06,74070.3,4.73,0.37,0.79,0,*7D
1531245901.61,36907,19.06,74070.8,4.73,0.37,0.83,0,*79
1531245902.82,36908,19.06,74064.8,4.73,0.37,0.83,0,*76
1531245904.03,36909,19.06,74070.3,4.73,0.37,0.83,0,*77
1531245905.21,36910,19.06,74064.5,4.73,0.43,0.79,0,*79
1531245906.4,36911,19.06,74066.5,4.73,0.43,0.83,0,*7D
1531245907.62,36912,19.06,74068.8,4.73,0.47,0.91,0,*79
1531245908.83,36913,19.06,74066.0,4.73,0.55,0.95,0,*7F
1531245910.04,36914,19.06,74070.8,4.73,0.59,0.95,0,*74
1531245911.24,36915,19.06,74070.0,4.73,0.59,0.95,0,*75
1531245912.46,36916,19.06,74070.3,4.73,0.55,0.95,0,*7A
1531245913.66,36917,19.06,74068.5,4.73,0.67,0.95,0,*7A
1531245914.85,36918,19.06,74068.5,4.73,0.67,1.05,0,*4D
1531245916.03,36919,19.06,74064.8,4.73,0.67,1.05,0,*4C
1531245917.23,36920,19.06,74066.0,4.73,0.79,1.05,0,*49
1531245918.45,36921,19.06,74066.8,4.73,0.71,1.09,0,*4C
1531245919.66,36922,19.06,74064.5,4.73,0.71,1.17,0,*40
1531245920.89,36923,19.06,74070.8,4.73,0.79,1.09,0,*46
1531245922.11,36924,19.06,74064.8,4.73,0.79,1.17,0,*4E
1531245923.33,36925,19.06,74070.3,4.73,0.83,1.17,0,*4A
1531245924.55,36926,19.06,74068.0,4.73,0.83,1.17,0,*49
1531245925.78,36927,19.06,74070.3,4.73,0.91,1.17,0,*4B
1531245927.01,36928,19.06,74064.3,4.73,0.91,1.09,0,*4B
1531245928.23,36929,19.06,74066.5,4.73,0.79,1.17,0,*43
1531245929.47,36930,19.06,74068.3,4.75,0.83,1.17,0,*48
1531245930.69,36931,19.06,74068.8,4.73,0.71,1.17,0,*42
1531245931.91,36932,19.06,74070.3,4.73,0.79,1.09,0,*46
1531245933.14,36933,19.06,74068.0,4.73,0.79,1.09,0,*47
1531245934.36,36934,19.06,74064.5,4.77,0.95,1.13,0,*4D
1531245935.59,36935,19.06,74066.3,4.75,0.97,1.17,0,*48
1531245936.83,36936,19.06,74070.8,4.75,0.95,1.17,0,*49
1531245938.03,36937,19.06,74066.3,4.73,0.97,1.17,0,*4C
1531245939.26,36938,19.06,74066.0,4.73,0.91,1.21,0,*40
1531245940.48,36939,19.06,74070.3,4.73,0.91,1.29,0,*49
1531245941.71,36940,19.06,74070.0,4.73,0.91,1.21,0,*4F
1531245942.93,36941,19.06,74066.5,4.73,0.95,1.21,0,*4A
1531245944.13,36942,19.06,74068.8,4.73,0.97,1.29,0,*43
1531245945.32,36943,19.06,74066.8,4.73,0.95,1.41,0,*4E
1531245946.53,36944,19.06,74068.3,4.75,0.95,1.41,0,*4F
1531245947.73,36945,19.06,74066.8,4.73,0.97,1.43,0,*48
1531245948.95,36946,19.06,74068.8,4.73,0.95,1.51,0,*4A
1531245950.16,36947,19.06,74068.0,4.73,0.95,1.51,0,*4B
1531245951.38,36948,19.06,74064.5,4.73,0.91,1.43,0,*43
1531245952.57,36949,19.06,74068.5,4.73,0.83,1.41,0,*43
1531245953.79,36950,19.06,74070.0,4.73,0.91,1.43,0,*4A
1531245955.01,36951,19.06,74068.0,4.73,0.91,1.43,0,*4B
1531245956.23,36952,19.06,74068.0,4.73,0.95,1.43,0,*4C
1531245957.42,36953,19.06,74070.0,4.73,0.91,1.41,0,*4B
1531245958.59,36954,19.06,74070.3,4.73,0.97,1.41,0,*4A
1531245959.81,36955,19.06,74068.3,4.73,0.95,1.33,0,*4C
1531245961.03,36956,19.06,74072.0,4.75,0.95,1.41,0,*4C
1531245962.28,36957,19.06,74070.0,4.75,0.91,1.33,0,*4C
1531245963.53,36958,19.06,74068.3,4.75,0.83,1.21,0,*43
1531245964.78,36959,19.06,74068.5,4.75,0.83,1.29,0,*4A
1531245966.02,36960,19.06,74066.5,4.75,0.71,1.21,0,*45
1531245967.27,36961,19.06,74070.3,4.75,0.71,1.21,0,*44
1531245968.49,36962,19.06,74068.3,4.73,0.71,1.09,0,*4B
1531245969.71,36963,19.06,74068.5,4.73,0.59,1.09,0,*40
1531245970.9,36964,19.06,74068.8,4.73,0.59,1.05,0,*4B
1531245972.08,36965,19.06,74068.8,4.73,0.67,0.97,0,*7D
1531245973.26,36966,19.06,74068.5,4.73,0.67,1.05,0,*44
1531245974.46,36967,19.06,74068.0,4.73,0.71,1.05,0,*42
1531245975.65,36968,19.06,74066.5,4.73,0.71,1.05,0,*4D
1531245976.84,36969,19.06,74070.5,4.73,0.71,1.05,0,*4C
1531245978.06,36970,19.06,74068.5,4.73,0.79,1.09,0,*40
1531245979.31,36971,19.06,74070.8,4.75,0.83,1.09,0,*42
1531245980.53,36972,19.06,74066.3,4.73,0.83,1.09,0,*47
1531245981.76,36973,19.06,74068.0,4.73,0.91,1.09,0,*45
1531245982.99,36974,19.06,74070.0,4.73,0.79,1.09,0,*44
1531245984.24,36975,19.06,74066.8,4.75,0.79,1.17,0,*4C
1531245985.46,36976,19.06,74064.0,4.73,0.83,1.17,0,*4C
1531245986.68,36977,19.06,74070.8,4.73,0.83,1.09,0,*42
1531245987.93,36978,19.06,74066.5,4.75,0.91,1.09,0,*48
1531245989.19,36979,19.06,74070.0,4.75,0.91,1.17,0,*46
1531245990.44,36980,19.06,74070.0,4.75,0.91,1.17,0,*40
1531245991.66,36981,19.06,74070.0,4.73,0.91,1.17,0,*47
1531245992.89,36982,19.06,74066.3,4.73,0.95,1.21,0,*45
1531245994.12,36983,19.06,74070.0,4.75,1.05,1.21,0,*7A
1531245995.38,36984,19.06,74068.3,4.75,1.09,1.21,0,*71
1531245996.63,36985,19.06,74068.5,4.75,1.09,1.29,0,*78
1531245997.89,36986,19.06,74074.3,4.75,1.09,1.33,0,*70
1531245999.15,36987,19.06,74070.8,4.75,1.09,1.33,0,*71
1531246000.35,36988,19.06,74068.3,4.75,1.05,1.41,0,*77
1531246001.58,36989,19.06,74066.5,4.75,1.05,1.43,0,*74
1531246002.77,36990,19.06,74068.8,4.73,0.97,1.51,0,*43
1531246004.0,36991,19.06,74070.3,4.75,1.05,1.33,0,*7A
1531246005.24,36992,19.06,74070.8,4.73,1.09,1.33,0,*73
1531246006.47,36993,19.06,74068.0,4.73,1.21,1.33,0,*78
1531246007.7,36994,19.06,74068.3,4.75,1.21,1.41,0,*7C
1531246008.96,36995,19.06,74068.0,4.75,1.29,1.51,0,*74
1531246010.22,36996,19.06,74068.5,4.75,1.29,1.51,0,*77
1531246011.45,36997,19.06,74070.3,4.73,1.29,1.55,0,*74
1531246012.68,36998,19.06,74068.8,4.73,1.29,1.55,0,*7B
1531246013.92,36999,19.06,74070.5,4.73,1.29,1.55,0,*7A
1531246015.17,37000,19.06,74070.3,4.75,1.29,1.51,0,*70
1531246016.43,37001,19.06,74064.8,4.75,1.29,1.55,0,*75
1531246017.69,37002,19.06,74070.8,4.75,1.29,1.55,0,*76
1531246018.95,37003,19.06,74068.5,4.75,1.29,1.63,0,*72
1531246020.18,37004,19.06,74068.3,4.73,1.21,1.51,0,*7A
1531246021.42,37005,19.06,74068.5,4.73,1.21,1.51,0,*7B
1531246022.64,37006,19.06,74070.5,4.73,1.21,1.43,0,*7B
1531246023.84,37007,19.06,74068.3,4.73,1.41,1.51,0,*7F
1531246025.09,37008,19.06,74068.5,4.75,1.43,1.63,0,*75
1531246026.32,37009,19.06,74070.0,4.75,1.51,1.79,0,*7C
1531246027.52,37010,19.06,74070.0,4.73,1.43,1.79,0,*71
1531246028.69,37011,19.06,74068.3,4.73,1.41,1.83,0,*77
1531246029.94,37012,19.06,74068.8,4.75,1.43,1.89,0,*7A
1531246031.18,37013,19.06,74070.0,4.75,1.63,1.89,0,*79
1531246032.38,37014,19.06,74066.5,4.73,1.79,1.89,0,*73
1531246033.6,37015,19.06,74068.0,4.73,1.89,1.93,0,*76
1531246034.85,37016,19.06,74070.5,4.75,1.89,2.05,0,*7F
1531246036.1,37017,19.06,74070.5,4.75,1.89,2.17,0,*7D
1531246037.35,37018,19.06,74068.8,4.75,1.93,2.25,0,*78
1531246038.61,37019,19.06,74070.5,4.75,2.13,2.17,0,*73
1531246039.81,37020,19.06,74070.3,4.75,2.27,2.35,0,*7E
1531246041.04,37021,19.06,74066.0,4.75,2.35,2.51,0,*7E
1531246042.27,37022,19.06,74068.3,4.75,2.35,2.55,0,*79
1531246043.48,37023,19.06,74068.0,4.75,2.27,2.61,0,*7C
1531246044.71,37024,19.06,74070.5,4.77,2.17,2.69,0,*72
1531246045.95,37025,19.06,74070.8,4.75,2.05,2.61,0,*7A
1531246047.18,37026,19.06,74070.5,4.75,2.13,2.61,0,*7E
1531246048.44,37027,19.06,74070.3,4.75,2.25,2.51,0,*79
1531246049.69,37028,19.06,74068.8,4.75,2.39,2.55,0,*7F
1531246050.93,37029,19.06,74068.5,4.75,2.51,2.61,0,*77
1531246052.16,37030,19.06,74070.5,4.75,2.55,2.65,0,*7F
1531246053.41,37031,19.06,74070.8,4.75,2.55,2.73,0,*79
1531246054.64,37032,19.06,74068.5,4.77,2.59,2.77,0,*70
1531246055.88,37033,19.06,74068.3,4.75,2.51,2.65,0,*78
1531246057.13,37034,19.06,74068.8,4.75,2.51,2.73,0,*78
1531246058.33,37035,19.06,74068.8,4.79,2.61,2.91,0,*7A
1531246059.57,37036,19.06,74070.3,4.77,2.59,2.89,0,*75
1531246060.79,37037,19.06,74068.3,4.79,2.69,2.91,0,*70
1531246061.99,37038,19.06,74066.8,4.77,2.69,2.91,0,*71
1531246063.22,37039,19.06,74070.5,4.79,2.81,2.95,0,*7C
1531246064.4,37040,19.06,74068.8,4.77,2.91,2.99,0,*71
1531246065.61,37041,19.06,74070.3,4.75,2.95,2.99,0,*76
1531246066.83,37042,19.06,74068.5,4.75,2.99,3.07,0,*7F
1531246068.06,37043,19.06,74068.3,4.75,2.99,3.23,0,*78
1531246069.24,37044,19.06,74068.5,4.77,2.99,3.25,0,*7B
1531246070.42,37045,19.06,74070.0,4.77,2.99,3.29,0,*76
1531246071.67,37046,19.06,74070.3,4.79,2.85,3.33,0,*7D
1531246072.89,37047,19.06,74068.8,4.77,2.69,3.23,0,*71
1531246074.12,37048,19.06,74068.8,4.75,2.61,3.11,0,*75
1531246075.35,37049,19.06,74070.3,4.77,2.55,3.15,0,*75
1531246076.59,37050,19.06,74070.3,4.77,2.43,3.03,0,*7D
1531246077.81,37051,19.06,74068.5,4.77,2.21,3.03,0,*78
1531246079.05,37052,19.06,74070.8,4.77,2.09,2.81,0,*7A
1531246080.28,37053,19.06,74070.5,4.77,1.93,2.77,0,*72
1531246081.51,37054,19.06,74070.3,4.77,1.85,2.59,0,*7E
1531246082.75,37055,19.06,74068.8,4.77,1.71,2.51,0,*7C
1531246083.95,37056,19.06,74068.5,4.77,1.67,2.31,0,*7E
1531246085.17,37057,19.06,74068.8,4.77,1.71,2.21,0,*79
1531246086.4,37058,19.06,74070.5,4.79,1.79,2.21,0,*70
1531246087.63,37059,19.06,74068.0,4.77,1.93,2.17,0,*7E
1531246088.83,37060,19.06,74070.8,4.79,2.31,2.31,0,*75
1531246090.09,37061,19.06,74068.0,4.79,2.47,2.47,0,*74
1531246091.3,37062,19.06,74068.0,4.79,2.61,2.61,0,*77
1531246092.5,37063,19.06,74068.8,4.77,2.65,2.69,0,*74
1531246093.76,37064,19.06,74068.0,4.79,2.69,2.81,0,*77
1531246095.01,37065,19.06,74070.5,4.79,2.69,2.85,0,*72
1531246096.23,37066,19.06,74070.0,4.79,2.69,2.91,0,*74
1531246097.46,37067,19.06,74068.8,4.79,2.69,2.91,0,*75
1531246098.68,37068,19.06,74068.8,4.79,2.69,2.95,0,*7E
1531246099.91,37069,19.06,74068.3,4.79,2.59,2.95,0,*7C
1531246101.14,37070,19.06,74068.3,4.79,2.55,2.91,0,*7C
1531246102.31,37071,19.06,74068.3,4.81,2.35,2.95,0,*78
1531246103.51,37072,19.06,74070.3,4.79,2.35,2.91,0,*78
1531246104.74,37073,19.06,74070.0,4.81,2.43,2.85,0,*7A
1531246105.94,37074,19.06,74070.3,4.81,2.35,2.85,0,*7C
1531246107.17,37075,19.06,74070.8,4.79,2.31,2.81,0,*7A
1531246108.4,37076,19.06,74068.5,4.79,2.31,2.73,0,*74
1531246109.62,37077,19.06,74068.3,4.81,2.21,2.69,0,*78
1531246110.87,37078,19.06,74068.8,4.79,2.09,2.69,0,*7A
1531246112.12,37079,19.06,74072.0,4.79,2.13,2.69,0,*70
1531246113.36,37080,19.06,74072.3,4.79,2.13,2.61,0,*7E
1531246114.58,37081,19.06,74072.3,4.81,2.21,2.59,0,*72
1531246115.81,37082,19.06,74068.0,4.79,2.31,2.59,0,*77
1531246117.0,37083,19.06,74072.3,4.81,2.31,2.61,0,*7A
1531246118.22,37084,19.06,74068.8,4.81,2.43,2.69,0,*70
1531246119.45,37085,19.06,74070.5,4.81,2.43,2.73,0,*7A
1531246120.68,37086,19.06,74068.8,4.81,2.59,2.73,0,*72
1531246121.88,37087,19.06,74074.3,4.81,2.61,2.85,0,*71
1531246123.1,37088,19.06,74068.3,4.81,2.69,2.85,0,*76